sat.trackr.live / text

‹ back to catalog

STARLINK-34289

NORAD 64225 · 2025-117Y

PAYLOAD ACTIVE UNKNOWN

§ Identity

Operator
Country
US
Launch date
2025-05-31
Launch site
AFWTR
Launch vehicle
Mass (kg)
RCS (m²)

Purposes: comms

External: N2YO · Heavens-Above · Gunter

§ Orbital elements

Epoch: 2026-05-25T02:18:41.690304Z

Period
94.10 min
Inclination
53.1593°
Eccentricity
0.0000956
Mean motion
15.30211108 rev/d
Perigee alt
474.5 km
Apogee alt
475.8 km
Semi-major
6,853.3 km
B*
5.5212e-4
RAAN
44.7150°
Arg perigee
99.7790°
Mean anomaly
260.3319°
Rev number
5,625

§ Raw data

STARLINK-342891 64225U 25117Y   26145.09631586  .00016034  00000+0  55212-3 0  99922 64225  53.1593  44.7150 0000956  99.7790 260.3319 15.30211108 56253

JSON: /api/v1/satellites/64225 · /tle

For live sub-satellite position, see the globe view (requires WebGL).

§ Visibility from observer

Set your observer location to see the next 7 days of passes ≥ 10°. The values pass through the URL so the page stays shareable.

No JS? Fill the form by hand. The geolocation button needs JavaScript.